Voltar ao catálogo

STARLINK-37593

AtivoComunicaçõesVLEO
NORAD 69355·PAYLOAD·🇺🇸 United States

Lançado Jun 4, 2026 de Cape Canaveral Space Force Station

Loading…

Próximas Passagens (próximas 24 horas)

TLE

AtualizadoSource: CelesTrak SupGP

Época: Sep 14, 2026, 21:30 UTC

1 69355C 26123C   26257.89631944 -.00049123  00000+0 -14509-2 0  2576
2 69355  53.1591 168.1005 0001272  93.8420  38.3030 15.34423860    17

Acompanhe STARLINK-37593 em tempo real com AllMySat

Download on the App Store